Time,TemperatureF,DewpointF,PressureIn,WindDirection,WindDirectionDegrees,WindSpeedMPH,WindSpeedGustMPH,Humidity,HourlyPrecipIn,Conditions,Clouds,dailyrainin,SoftwareType,DateUTC
2013-08-05 00:02:00,56.1,52.3,29.78,NW,323,1.0,2.0,87,0.00,,,0.00,WeatherCatV1.21B27,2013-08-04 23:02:00,
2013-08-05 00:07:00,56.0,52.5,29.79,NW,318,0.0,3.0,88,0.00,,,0.00,WeatherCatV1.21B27,2013-08-04 23:07:00,
2013-08-05 00:12:00,56.0,52.5,29.78,NW,319,3.0,4.0,88,0.00,,,0.00,WeatherCatV1.21B27,2013-08-04 23:12:00,
2013-08-05 00:17:00,56.1,52.6,29.79,NNE,16,3.0,3.0,88,0.00,,,0.00,WeatherCatV1.21B27,2013-08-04 23:17:00,
2013-08-05 00:22:00,56.2,52.7,29.79,North,349,4.0,5.0,88,0.00,,,0.00,WeatherCatV1.21B27,2013-08-04 23:22:00,
2013-08-05 00:27:00,56.2,52.7,29.79,NNW,340,3.0,5.0,88,0.00,,,0.00,WeatherCatV1.21B27,2013-08-04 23:27:00,
2013-08-05 00:32:00,56.3,52.8,29.79,NW,315,3.0,5.0,88,0.00,,,0.00,WeatherCatV1.21B27,2013-08-04 23:32:00,
2013-08-05 00:37:00,56.3,52.8,29.79,NW,315,4.0,6.0,88,0.00,,,0.00,WeatherCatV1.21B27,2013-08-04 23:37:00,
2013-08-05 00:42:00,56.4,52.9,29.79,North,356,1.0,4.0,88,0.00,,,0.00,WeatherCatV1.21B27,2013-08-04 23:42:00,
2013-08-05 00:47:00,56.4,52.9,29.79,NW,325,2.0,3.0,88,0.00,,,0.00,WeatherCatV1.21B27,2013-08-04 23:47:00,
2013-08-05 00:52:00,56.3,53.1,29.78,ENE,65,2.0,6.0,89,0.00,,,0.00,WeatherCatV1.21B27,2013-08-04 23:52:00,
2013-08-05 00:57:00,56.3,53.1,29.79,NE,44,2.0,6.0,89,0.00,,,0.00,WeatherCatV1.21B27,2013-08-04 23:57:00,
2013-08-05 01:02:00,56.2,53.0,29.79,NNW,339,1.0,4.0,89,0.00,,,0.00,WeatherCatV1.21B27,2013-08-05 00:02:00,
2013-08-05 01:07:00,56.1,52.9,29.78,NW,322,4.0,6.0,89,0.00,,,0.00,WeatherCatV1.21B27,2013-08-05 00:07:00,
2013-08-05 01:12:00,56.0,52.8,29.78,NNW,330,4.0,4.0,89,0.00,,,0.00,WeatherCatV1.21B27,2013-08-05 00:12:00,
2013-08-05 01:17:00,55.9,52.7,29.78,NNW,343,2.0,6.0,89,0.00,,,0.00,WeatherCatV1.21B27,2013-08-05 00:17:00,
2013-08-05 01:22:00,55.8,52.9,29.78,NW,323,4.0,6.0,90,0.00,,,0.00,WeatherCatV1.21B27,2013-08-05 00:22:00,
2013-08-05 01:27:00,55.7,52.5,29.78,NW,320,2.0,5.0,89,0.00,,,0.00,WeatherCatV1.21B27,2013-08-05 00:27:00,
2013-08-05 01:32:00,55.5,52.6,29.78,NW,318,2.0,5.0,90,0.00,,,0.00,WeatherCatV1.21B27,2013-08-05 00:32:00,
2013-08-05 01:37:00,55.1,52.2,29.78,NW,305,2.0,4.0,90,0.00,,,0.00,WeatherCatV1.21B27,2013-08-05 00:37:00,
2013-08-05 01:42:00,54.7,51.8,29.78,NNW,327,5.0,7.0,90,0.00,,,0.00,WeatherCatV1.21B27,2013-08-05 00:42:00,
2013-08-05 01:47:00,54.5,51.9,29.78,NW,324,4.0,5.0,91,0.00,,,0.00,WeatherCatV1.21B27,2013-08-05 00:47:00,
2013-08-05 01:52:00,54.4,51.8,29.78,NW,309,1.0,4.0,91,0.00,,,0.00,WeatherCatV1.21B27,2013-08-05 00:52:00,
2013-08-05 01:57:00,54.3,51.7,29.78,NW,320,3.0,4.0,91,0.00,,,0.00,WeatherCatV1.21B27,2013-08-05 00:57:00,
2013-08-05 02:02:00,54.1,51.5,29.78,NW,318,1.0,4.0,91,0.00,,,0.00,WeatherCatV1.21B27,2013-08-05 01:02:00,
2013-08-05 02:07:00,54.0,51.4,29.78,NW,314,0.0,4.0,91,0.00,,,0.00,WeatherCatV1.21B27,2013-08-05 01:07:00,
2013-08-05 02:12:00,53.9,51.3,29.78,NNE,13,2.0,2.0,91,0.00,,,0.00,WeatherCatV1.21B27,2013-08-05 01:12:00,
2013-08-05 02:17:00,53.7,51.4,29.78,NW,319,2.0,5.0,92,0.00,,,0.00,WeatherCatV1.21B27,2013-08-05 01:17:00,
2013-08-05 02:22:00,53.6,51.3,29.77,NNW,328,2.0,4.0,92,0.00,,,0.00,WeatherCatV1.21B27,2013-08-05 01:22:00,
2013-08-05 02:27:00,53.6,51.3,29.78,NNW,331,4.0,4.0,92,0.00,,,0.00,WeatherCatV1.21B27,2013-08-05 01:27:00,
2013-08-05 02:32:00,53.6,51.3,29.78,WNW,300,4.0,5.0,92,0.00,,,0.00,WeatherCatV1.21B27,2013-08-05 01:32:00,
2013-08-05 02:37:00,53.6,51.3,29.78,NNW,327,2.0,4.0,92,0.00,,,0.00,WeatherCatV1.21B27,2013-08-05 01:37:00,
2013-08-05 02:42:00,53.6,51.3,29.78,NNW,341,3.0,4.0,92,0.00,,,0.00,WeatherCatV1.21B27,2013-08-05 01:42:00,
2013-08-05 02:47:00,53.5,51.2,29.78,NNW,335,4.0,4.0,92,0.00,,,0.00,WeatherCatV1.21B27,2013-08-05 01:47:00,
2013-08-05 02:52:00,53.3,51.0,29.78,NNW,328,2.0,3.0,92,0.00,,,0.00,WeatherCatV1.21B27,2013-08-05 01:52:00,
2013-08-05 02:57:00,53.2,50.9,29.78,NW,317,2.0,4.0,92,0.00,,,0.00,WeatherCatV1.21B27,2013-08-05 01:57:00,
2013-08-05 03:02:00,53.1,50.8,29.78,NNW,342,3.0,4.0,92,0.00,,,0.00,WeatherCatV1.21B27,2013-08-05 02:02:00,
2013-08-05 03:07:00,53.0,50.7,29.77,NW,325,2.0,4.0,92,0.00,,,0.00,WeatherCatV1.21B27,2013-08-05 02:07:00,
2013-08-05 03:12:00,53.0,50.7,29.77,NW,318,2.0,4.0,92,0.00,,,0.00,WeatherCatV1.21B27,2013-08-05 02:12:00,
2013-08-05 03:17:00,53.0,50.7,29.77,NW,325,3.0,5.0,92,0.00,,,0.00,WeatherCatV1.21B27,2013-08-05 02:17:00,
2013-08-05 03:22:00,52.9,50.6,29.78,NNW,328,3.0,4.0,92,0.00,,,0.00,WeatherCatV1.21B27,2013-08-05 02:22:00,
2013-08-05 03:27:00,52.7,50.4,29.77,NW,321,4.0,5.0,92,0.00,,,0.00,WeatherCatV1.21B27,2013-08-05 02:27:00,
2013-08-05 03:32:00,52.6,50.6,29.77,NNW,328,4.0,6.0,93,0.00,,,0.00,WeatherCatV1.21B27,2013-08-05 02:32:00,
2013-08-05 03:37:00,52.6,50.6,29.77,NW,316,2.0,5.0,93,0.00,,,0.00,WeatherCatV1.21B27,2013-08-05 02:37:00,
2013-08-05 03:42:00,52.6,50.6,29.77,NNW,330,4.0,5.0,93,0.00,,,0.00,WeatherCatV1.21B27,2013-08-05 02:42:00,
2013-08-05 03:47:00,52.5,50.5,29.77,NW,325,3.0,5.0,93,0.00,,,0.00,WeatherCatV1.21B27,2013-08-05 02:47:00,
2013-08-05 03:52:00,52.5,50.5,29.78,NW,311,3.0,4.0,93,0.00,,,0.00,WeatherCatV1.21B27,2013-08-05 02:52:00,
2013-08-05 03:57:00,52.6,50.6,29.78,NNW,335,2.0,7.0,93,0.00,,,0.00,WeatherCatV1.21B27,2013-08-05 02:57:00,
2013-08-05 04:02:00,52.6,50.6,29.78,NNW,335,4.0,5.0,93,0.00,,,0.00,WeatherCatV1.21B27,2013-08-05 03:02:00,
2013-08-05 04:07:00,52.5,50.5,29.78,North,6,3.0,4.0,93,0.00,,,0.00,WeatherCatV1.21B27,2013-08-05 03:07:00,
2013-08-05 04:12:00,52.6,50.6,29.78,NNW,331,3.0,4.0,93,0.00,,,0.00,WeatherCatV1.21B27,2013-08-05 03:12:00,
2013-08-05 04:17:00,52.5,50.5,29.78,NNW,331,2.0,5.0,93,0.00,,,0.00,WeatherCatV1.21B27,2013-08-05 03:17:00,
2013-08-05 04:22:00,52.4,50.4,29.77,North,351,3.0,5.0,93,0.00,,,0.00,WeatherCatV1.21B27,2013-08-05 03:22:00,
2013-08-05 04:27:00,52.2,50.2,29.77,NNW,330,3.0,3.0,93,0.00,,,0.00,WeatherCatV1.21B27,2013-08-05 03:27:00,
2013-08-05 04:32:00,51.9,49.9,29.77,NW,316,1.0,2.0,93,0.00,,,0.00,WeatherCatV1.21B27,2013-08-05 03:32:00,
2013-08-05 04:37:00,51.8,49.8,29.77,NW,318,3.0,3.0,93,0.00,,,0.00,WeatherCatV1.21B27,2013-08-05 03:37:00,
2013-08-05 04:42:00,51.8,50.1,29.77,NW,325,1.0,3.0,94,0.00,,,0.00,WeatherCatV1.21B27,2013-08-05 03:42:00,
2013-08-05 04:47:00,51.9,50.2,29.77,NW,320,1.0,2.0,94,0.00,,,0.00,WeatherCatV1.21B27,2013-08-05 03:47:00,
2013-08-05 04:52:00,51.9,50.2,29.77,NW,319,1.0,2.0,94,0.00,,,0.00,WeatherCatV1.21B27,2013-08-05 03:52:00,
2013-08-05 04:57:00,51.8,49.8,29.77,NNW,335,1.0,2.0,93,0.00,,,0.00,WeatherCatV1.21B27,2013-08-05 03:57:00,
2013-08-05 05:01:00,51.6,49.6,29.77,NW,314,0.0,2.0,93,0.00,,,0.00,WeatherCatV1.21B27,2013-08-05 04:01:00,
2013-08-05 05:06:00,51.5,49.8,29.77,NNW,328,0.0,2.0,94,0.00,,,0.00,WeatherCatV1.21B27,2013-08-05 04:06:00,
2013-08-05 05:11:00,51.4,49.4,29.77,NW,317,1.0,2.0,93,0.00,,,0.00,WeatherCatV1.21B27,2013-08-05 04:11:00,
2013-08-05 05:16:00,51.3,49.3,29.77,NW,323,1.0,2.0,93,0.00,,,0.00,WeatherCatV1.21B27,2013-08-05 04:16:00,
2013-08-05 05:21:00,51.2,49.2,29.77,NW,322,0.0,0.0,93,0.00,,,0.00,WeatherCatV1.21B27,2013-08-05 04:21:00,
2013-08-05 05:26:00,51.0,49.0,29.77,NW,322,0.0,0.0,93,0.00,,,0.00,WeatherCatV1.21B27,2013-08-05 04:26:00,
2013-08-05 05:31:00,51.0,49.0,29.77,NW,322,0.0,1.0,93,0.00,,,0.00,WeatherCatV1.21B27,2013-08-05 04:31:00,
2013-08-05 05:36:00,50.4,48.2,29.77,NW,314,1.0,2.0,92,0.00,,,0.00,WeatherCatV1.21B27,2013-08-05 04:36:00,
2013-08-05 05:41:00,49.9,48.0,29.77,NW,319,0.0,1.0,93,0.00,,,0.00,WeatherCatV1.21B27,2013-08-05 04:41:00,
2013-08-05 05:46:00,49.8,48.1,29.78,NW,319,1.0,1.0,94,0.00,,,0.00,WeatherCatV1.21B27,2013-08-05 04:46:00,
2013-08-05 05:51:00,49.7,48.0,29.78,NW,314,0.0,2.0,94,0.00,,,0.00,WeatherCatV1.21B27,2013-08-05 04:51:00,
2013-08-05 05:56:00,49.6,47.9,29.78,NW,317,0.0,1.0,94,0.00,,,0.00,WeatherCatV1.21B27,2013-08-05 04:56:00,
2013-08-05 06:01:00,49.5,47.8,29.77,WNW,298,0.0,0.0,94,0.00,,,0.00,WeatherCatV1.21B27,2013-08-05 05:01:00,
2013-08-05 06:06:00,49.5,47.8,29.77,WNW,295,0.0,1.0,94,0.00,,,0.00,WeatherCatV1.21B27,2013-08-05 05:06:00,
2013-08-05 06:11:00,49.6,47.9,29.77,NW,325,1.0,2.0,94,0.00,,,0.00,WeatherCatV1.21B27,2013-08-05 05:11:00,
2013-08-05 06:16:00,49.8,48.1,29.77,NW,319,1.0,2.0,94,0.00,,,0.00,WeatherCatV1.21B27,2013-08-05 05:16:00,
2013-08-05 06:21:00,50.0,48.1,29.77,NW,319,0.0,0.0,93,0.00,,,0.00,WeatherCatV1.21B27,2013-08-05 05:21:00,
2013-08-05 06:26:00,50.0,48.1,29.77,NNW,335,1.0,2.0,93,0.00,,,0.00,WeatherCatV1.21B27,2013-08-05 05:26:00,
2013-08-05 06:31:00,50.0,47.8,29.77,NW,325,0.0,1.0,92,0.00,,,0.00,WeatherCatV1.21B27,2013-08-05 05:31:00,
2013-08-05 06:36:00,49.9,47.7,29.77,WNW,288,0.0,2.0,92,0.00,,,0.00,WeatherCatV1.21B27,2013-08-05 05:36:00,
2013-08-05 06:41:00,49.7,47.5,29.77,NW,319,1.0,2.0,92,0.00,,,0.00,WeatherCatV1.21B27,2013-08-05 05:41:00,
2013-08-05 06:46:00,49.7,47.5,29.77,NNW,335,1.0,3.0,92,0.00,,,0.00,WeatherCatV1.21B27,2013-08-05 05:46:00,
2013-08-05 06:51:00,49.7,47.5,29.77,NNW,337,1.0,1.0,92,0.00,,,0.00,WeatherCatV1.21B27,2013-08-05 05:51:00,
2013-08-05 06:56:00,49.8,47.6,29.78,NNW,339,2.0,2.0,92,0.00,,,0.00,WeatherCatV1.21B27,2013-08-05 05:56:00,
2013-08-05 07:01:00,49.9,47.7,29.77,NNW,330,1.0,1.0,92,0.00,,,0.00,WeatherCatV1.21B27,2013-08-05 06:01:00,
2013-08-05 07:06:00,50.1,47.9,29.78,NNW,340,1.0,2.0,92,0.00,,,0.00,WeatherCatV1.21B27,2013-08-05 06:06:00,
2013-08-05 07:11:00,50.3,47.8,29.78,NNW,330,1.0,2.0,91,0.00,,,0.00,WeatherCatV1.21B27,2013-08-05 06:11:00,
2013-08-05 07:16:00,50.4,47.9,29.78,NNW,335,0.0,1.0,91,0.00,,,0.00,WeatherCatV1.21B27,2013-08-05 06:16:00,
2013-08-05 07:21:00,50.5,48.0,29.78,NNW,335,0.0,0.0,91,0.00,,,0.00,WeatherCatV1.21B27,2013-08-05 06:21:00,
2013-08-05 07:26:00,50.7,48.5,29.78,NNW,335,1.0,1.0,92,0.00,,,0.00,WeatherCatV1.21B27,2013-08-05 06:26:00,
2013-08-05 07:31:00,51.1,48.9,29.78,WNW,287,3.0,4.0,92,0.00,,,0.00,WeatherCatV1.21B27,2013-08-05 06:31:00,
2013-08-05 07:36:00,51.6,49.1,29.78,WNW,288,1.0,4.0,91,0.00,,,0.00,WeatherCatV1.21B27,2013-08-05 06:36:00,
2013-08-05 07:41:00,52.0,49.5,29.78,West,278,0.0,2.0,91,0.00,,,0.00,WeatherCatV1.21B27,2013-08-05 06:41:00,
2013-08-05 07:46:00,52.5,50.0,29.78,WNW,289,0.0,1.0,91,0.00,,,0.00,WeatherCatV1.21B27,2013-08-05 06:46:00,
2013-08-05 07:51:00,53.2,50.6,29.78,NW,311,1.0,2.0,91,0.00,,,0.00,WeatherCatV1.21B27,2013-08-05 06:51:00,
2013-08-05 07:56:00,53.8,50.9,29.78,WNW,291,1.0,3.0,90,0.00,,,0.00,WeatherCatV1.21B27,2013-08-05 06:56:00,
2013-08-05 08:01:00,54.5,51.3,29.78,West,277,1.0,2.0,89,0.00,,,0.00,WeatherCatV1.21B27,2013-08-05 07:01:00,
2013-08-05 08:06:00,55.2,52.0,29.78,NNW,335,0.0,2.0,89,0.00,,,0.00,WeatherCatV1.21B27,2013-08-05 07:06:00,
2013-08-05 08:11:00,55.9,52.1,29.78,WNW,284,3.0,3.0,87,0.00,,,0.00,WeatherCatV1.21B27,2013-08-05 07:11:00,
2013-08-05 08:16:00,56.5,52.0,29.78,WNW,284,2.0,4.0,85,0.00,,,0.00,WeatherCatV1.21B27,2013-08-05 07:16:00,
2013-08-05 08:21:00,57.1,52.6,29.78,West,277,2.0,2.0,85,0.00,,,0.00,WeatherCatV1.21B27,2013-08-05 07:21:00,
2013-08-05 08:26:00,57.6,52.8,29.78,West,267,2.0,3.0,84,0.00,,,0.00,WeatherCatV1.21B27,2013-08-05 07:26:00,
2013-08-05 08:31:00,58.0,52.9,29.78,WNW,288,1.0,2.0,83,0.00,,,0.00,WeatherCatV1.21B27,2013-08-05 07:31:00,
2013-08-05 08:36:00,58.3,53.2,29.78,NW,326,3.0,5.0,83,0.00,,,0.00,WeatherCatV1.21B27,2013-08-05 07:36:00,
2013-08-05 08:41:00,58.5,53.0,29.79,West,266,3.0,3.0,82,0.00,,,0.00,WeatherCatV1.21B27,2013-08-05 07:41:00,
2013-08-05 08:46:00,58.8,52.6,29.79,NNW,335,3.0,4.0,80,0.00,,,0.00,WeatherCatV1.21B27,2013-08-05 07:46:00,
2013-08-05 08:51:00,58.9,52.7,29.79,NNW,341,4.0,5.0,80,0.00,,,0.00,WeatherCatV1.21B27,2013-08-05 07:51:00,
2013-08-05 08:56:00,59.1,52.9,29.79,WNW,284,1.0,3.0,80,0.00,,,0.00,WeatherCatV1.21B27,2013-08-05 07:56:00,
2013-08-05 09:01:00,59.6,53.1,29.78,NNW,335,3.0,4.0,79,0.00,,,0.00,WeatherCatV1.21B27,2013-08-05 08:01:00,
2013-08-05 09:06:00,59.9,53.0,29.79,NNW,327,4.0,5.0,78,0.00,,,0.00,WeatherCatV1.21B27,2013-08-05 08:06:00,
2013-08-05 09:11:00,59.9,53.0,29.79,NNW,330,4.0,5.0,78,0.00,,,0.00,WeatherCatV1.21B27,2013-08-05 08:11:00,
2013-08-05 09:16:00,59.8,52.6,29.79,NW,321,4.0,6.0,77,0.00,,,0.00,WeatherCatV1.21B27,2013-08-05 08:16:00,
2013-08-05 09:21:00,60.3,52.7,29.79,North,4,2.0,6.0,76,0.00,,,0.00,WeatherCatV1.21B27,2013-08-05 08:21:00,
2013-08-05 09:27:00,60.8,52.5,29.79,NW,321,5.0,7.0,74,0.00,,,0.00,WeatherCatV1.21B27,2013-08-05 08:27:00,
2013-08-05 09:32:00,60.8,52.8,29.79,NNW,328,2.0,4.0,75,0.00,,,0.00,WeatherCatV1.21B27,2013-08-05 08:32:00,
2013-08-05 09:37:00,61.2,53.2,29.79,East,84,3.0,4.0,75,0.00,,,0.00,WeatherCatV1.21B27,2013-08-05 08:37:00,
2013-08-05 09:41:00,61.3,52.9,29.79,NW,316,1.0,5.0,74,0.00,,,0.00,WeatherCatV1.21B27,2013-08-05 08:41:00,
2013-08-05 09:46:00,61.1,53.1,29.79,NNW,330,2.0,6.0,75,0.00,,,0.00,WeatherCatV1.21B27,2013-08-05 08:46:00,
2013-08-05 09:51:00,60.9,52.9,29.79,WNW,289,1.0,5.0,75,0.00,,,0.00,WeatherCatV1.21B27,2013-08-05 08:51:00,
2013-08-05 09:56:00,61.4,53.4,29.79,NW,326,4.0,7.0,75,0.00,,,0.00,WeatherCatV1.21B27,2013-08-05 08:56:00,
2013-08-05 10:01:00,61.2,52.5,29.79,WNW,295,4.0,6.0,73,0.00,,,0.00,WeatherCatV1.21B27,2013-08-05 09:01:00,
2013-08-05 10:06:00,61.1,52.8,29.79,NNW,331,3.0,6.0,74,0.00,,,0.00,WeatherCatV1.21B27,2013-08-05 09:06:00,
2013-08-05 10:11:00,61.0,52.7,29.79,WNW,291,2.0,6.0,74,0.00,,,0.00,WeatherCatV1.21B27,2013-08-05 09:11:00,
2013-08-05 10:16:00,61.3,52.9,29.79,NW,314,2.0,5.0,74,0.00,,,0.00,WeatherCatV1.21B27,2013-08-05 09:16:00,
2013-08-05 10:21:00,61.5,53.1,29.79,WNW,300,4.0,7.0,74,0.00,,,0.00,WeatherCatV1.21B27,2013-08-05 09:21:00,
2013-08-05 10:26:00,61.2,52.8,29.79,NW,326,6.0,6.0,74,0.00,,,0.00,WeatherCatV1.21B27,2013-08-05 09:26:00,
2013-08-05 10:31:00,61.0,52.7,29.79,NW,308,4.0,6.0,74,0.00,,,0.00,WeatherCatV1.21B27,2013-08-05 09:31:00,
2013-08-05 10:36:00,61.0,53.4,29.79,NNW,348,3.0,5.0,76,0.00,,,0.00,WeatherCatV1.21B27,2013-08-05 09:36:00,
2013-08-05 10:41:00,61.2,53.2,29.79,NNW,342,3.0,5.0,75,0.00,,,0.00,WeatherCatV1.21B27,2013-08-05 09:41:00,
2013-08-05 10:46:00,61.2,53.2,29.79,WNW,283,2.0,5.0,75,0.00,,,0.00,WeatherCatV1.21B27,2013-08-05 09:46:00,
2013-08-05 10:51:00,61.2,53.2,29.79,West,276,1.0,2.0,75,0.00,,,0.00,WeatherCatV1.21B27,2013-08-05 09:51:00,
2013-08-05 10:56:00,61.4,53.8,29.79,WNW,291,3.0,4.0,76,0.00,,,0.00,WeatherCatV1.21B27,2013-08-05 09:56:00,
2013-08-05 11:01:00,61.6,52.9,29.79,West,264,3.0,6.0,73,0.00,,,0.00,WeatherCatV1.21B27,2013-08-05 10:01:00,
2013-08-05 11:06:00,61.9,53.5,29.79,WNW,295,3.0,6.0,74,0.00,,,0.00,WeatherCatV1.21B27,2013-08-05 10:06:00,
2013-08-05 11:11:00,61.7,52.6,29.79,WNW,287,1.0,3.0,72,0.00,,,0.00,WeatherCatV1.21B27,2013-08-05 10:11:00,
2013-08-05 11:16:00,62.2,52.7,29.79,NW,316,1.0,4.0,71,0.00,,,0.00,WeatherCatV1.21B27,2013-08-05 10:16:00,
2013-08-05 11:21:00,62.4,52.5,29.79,SE,126,2.0,3.0,70,0.00,,,0.00,WeatherCatV1.21B27,2013-08-05 10:21:00,
2013-08-05 11:26:00,62.4,52.1,29.79,NNW,340,4.0,4.0,69,0.00,,,0.00,WeatherCatV1.21B27,2013-08-05 10:26:00,
2013-08-05 11:31:00,62.1,52.2,29.80,WNW,299,2.0,4.0,70,0.00,,,0.00,WeatherCatV1.21B27,2013-08-05 10:31:00,
2013-08-05 11:36:00,61.7,53.0,29.80,West,277,3.0,3.0,73,0.00,,,0.00,WeatherCatV1.21B27,2013-08-05 10:36:00,
2013-08-05 11:41:00,61.1,52.0,29.80,North,4,6.0,8.0,72,0.00,,,0.00,WeatherCatV1.21B27,2013-08-05 10:41:00,
2013-08-05 11:46:00,60.4,52.1,29.80,NNW,330,7.0,9.0,74,0.00,,,0.00,WeatherCatV1.21B27,2013-08-05 10:46:00,
2013-08-05 11:51:00,60.1,51.8,29.80,NNW,345,6.0,8.0,74,0.00,,,0.00,WeatherCatV1.21B27,2013-08-05 10:51:00,
2013-08-05 11:56:00,60.1,51.8,29.80,NNW,338,6.0,9.0,74,0.00,,,0.00,WeatherCatV1.21B27,2013-08-05 10:56:00,
2013-08-05 12:01:00,60.2,51.9,29.81,NNW,338,6.0,10.0,74,0.00,,,0.00,WeatherCatV1.21B27,2013-08-05 11:01:00,
2013-08-05 12:06:00,60.5,52.2,29.80,NNW,335,6.0,9.0,74,0.00,,,0.00,WeatherCatV1.21B27,2013-08-05 11:06:00,
2013-08-05 12:11:00,60.8,51.7,29.80,NNW,341,7.0,9.0,72,0.00,,,0.00,WeatherCatV1.21B27,2013-08-05 11:11:00,
2013-08-05 12:16:00,61.8,52.7,29.81,NNW,333,8.0,9.0,72,0.00,,,0.00,WeatherCatV1.21B27,2013-08-05 11:16:00,
2013-08-05 12:21:00,63.0,53.8,29.81,NW,326,4.0,7.0,72,0.00,,,0.00,WeatherCatV1.21B27,2013-08-05 11:21:00,
2013-08-05 12:25:00,63.5,51.9,29.81,NW,321,4.0,9.0,66,0.00,,,0.00,WeatherCatV1.21B27,2013-08-05 11:25:00,
2013-08-05 12:31:00,63.0,51.5,29.80,WNW,297,3.0,7.0,66,0.00,,,0.00,WeatherCatV1.21B27,2013-08-05 11:31:00,
2013-08-05 12:36:00,63.7,50.9,29.80,North,5,6.0,12.0,63,0.00,,,0.00,WeatherCatV1.21B27,2013-08-05 11:36:00,
2013-08-05 12:40:00,63.5,51.1,29.80,NNW,330,4.0,8.0,64,0.00,,,0.00,WeatherCatV1.21B27,2013-08-05 11:40:00,
2013-08-05 12:45:00,62.9,51.0,29.81,NW,316,5.0,9.0,65,0.00,,,0.00,WeatherCatV1.21B27,2013-08-05 11:45:00,
2013-08-05 12:51:00,62.4,51.3,29.80,NNW,329,3.0,7.0,67,0.00,,,0.00,WeatherCatV1.21B27,2013-08-05 11:51:00,
2013-08-05 12:55:00,62.3,52.0,29.80,NW,318,1.0,6.0,69,0.00,,,0.00,WeatherCatV1.21B27,2013-08-05 11:55:00,
2013-08-05 13:01:00,62.5,52.2,29.80,NW,314,2.0,5.0,69,0.00,,,0.00,WeatherCatV1.21B27,2013-08-05 12:01:00,
2013-08-05 13:06:00,62.8,51.3,29.80,West,281,2.0,5.0,66,0.00,,,0.00,WeatherCatV1.21B27,2013-08-05 12:06:00,
2013-08-05 13:11:00,63.0,51.9,29.80,SSE,167,2.0,4.0,67,0.00,,,0.00,WeatherCatV1.21B27,2013-08-05 12:11:00,
2013-08-05 13:16:00,63.2,51.7,29.81,North,349,4.0,8.0,66,0.00,,,0.00,WeatherCatV1.21B27,2013-08-05 12:16:00,
2013-08-05 13:20:00,64.1,52.9,29.80,WNW,285,1.0,6.0,67,0.00,,,0.00,WeatherCatV1.21B27,2013-08-05 12:20:00,
2013-08-05 13:26:00,64.6,51.3,29.81,NW,318,8.0,12.0,62,0.00,,,0.00,WeatherCatV1.21B27,2013-08-05 12:26:00,
2013-08-05 13:31:00,63.7,51.7,29.81,NW,312,6.0,12.0,65,0.00,,,0.00,WeatherCatV1.21B27,2013-08-05 12:31:00,
2013-08-05 13:35:00,63.6,52.8,29.81,NNW,345,6.0,11.0,68,0.00,,,0.00,WeatherCatV1.21B27,2013-08-05 12:35:00,
2013-08-05 13:41:00,63.8,53.0,29.81,WNW,287,4.0,8.0,68,0.00,,,0.00,WeatherCatV1.21B27,2013-08-05 12:41:00,
2013-08-05 13:45:00,64.0,52.8,29.81,NNW,327,2.0,7.0,67,0.00,,,0.00,WeatherCatV1.21B27,2013-08-05 12:45:00,
2013-08-05 13:51:00,63.7,52.9,29.81,NNW,338,2.0,10.0,68,0.00,,,0.00,WeatherCatV1.21B27,2013-08-05 12:51:00,
2013-08-05 13:55:00,63.7,53.3,29.81,NNW,335,11.0,12.0,69,0.00,,,0.00,WeatherCatV1.21B27,2013-08-05 12:55:00,
2013-08-05 14:01:00,63.6,52.8,29.81,NW,314,12.0,12.0,68,0.00,,,0.00,WeatherCatV1.21B27,2013-08-05 13:01:00,
2013-08-05 14:05:00,63.3,52.2,29.81,West,277,6.0,9.0,67,0.00,,,0.00,WeatherCatV1.21B27,2013-08-05 13:05:00,
2013-08-05 14:10:00,62.9,52.2,29.81,NNW,347,5.0,9.0,68,0.00,,,0.00,WeatherCatV1.21B27,2013-08-05 13:10:00,
2013-08-05 14:16:00,62.7,52.4,29.81,NW,325,7.0,7.0,69,0.00,,,0.00,WeatherCatV1.21B27,2013-08-05 13:16:00,
2013-08-05 14:21:00,62.9,51.4,29.81,NNW,328,8.0,11.0,66,0.00,,,0.00,WeatherCatV1.21B27,2013-08-05 13:21:00,
2013-08-05 14:26:00,63.0,52.3,29.81,North,354,5.0,5.0,68,0.00,,,0.00,WeatherCatV1.21B27,2013-08-05 13:26:00,
2013-08-05 14:31:00,63.4,52.2,29.81,NNW,328,2.0,8.0,67,0.00,,,0.00,WeatherCatV1.21B27,2013-08-05 13:31:00,
2013-08-05 14:36:00,63.6,51.2,29.82,NNW,335,6.0,10.0,64,0.00,,,0.00,WeatherCatV1.21B27,2013-08-05 13:36:00,
2013-08-05 14:40:00,64.0,52.4,29.82,WNW,300,2.0,8.0,66,0.00,,,0.00,WeatherCatV1.21B27,2013-08-05 13:40:00,
2013-08-05 14:46:00,64.0,52.4,29.82,NW,324,7.0,9.0,66,0.00,,,0.00,WeatherCatV1.21B27,2013-08-05 13:46:00,
2013-08-05 14:51:00,63.9,51.0,29.82,WNW,295,7.0,13.0,63,0.00,,,0.00,WeatherCatV1.21B27,2013-08-05 13:51:00,
2013-08-05 14:55:00,63.7,51.7,29.82,NW,320,6.0,6.0,65,0.00,,,0.00,WeatherCatV1.21B27,2013-08-05 13:55:00,
2013-08-05 15:01:00,64.3,51.4,29.82,NW,325,9.0,11.0,63,0.00,,,0.00,WeatherCatV1.21B27,2013-08-05 14:01:00,
2013-08-05 15:06:00,64.8,51.0,29.82,NNW,343,4.0,10.0,61,0.00,,,0.00,WeatherCatV1.21B27,2013-08-05 14:06:00,
2013-08-05 15:11:00,64.7,51.8,29.82,NW,321,4.0,6.0,63,0.00,,,0.00,WeatherCatV1.21B27,2013-08-05 14:11:00,
2013-08-05 15:16:00,64.6,51.3,29.82,NW,325,5.0,9.0,62,0.00,,,0.00,WeatherCatV1.21B27,2013-08-05 14:16:00,
2013-08-05 15:21:00,65.3,50.6,29.82,West,260,6.0,8.0,59,0.00,,,0.00,WeatherCatV1.21B27,2013-08-05 14:21:00,
2013-08-05 15:26:00,65.7,50.5,29.82,WSW,240,3.0,9.0,58,0.00,,,0.00,WeatherCatV1.21B27,2013-08-05 14:26:00,
2013-08-05 15:31:00,64.8,51.5,29.82,WNW,291,2.0,11.0,62,0.00,,,0.00,WeatherCatV1.21B27,2013-08-05 14:31:00,
2013-08-05 15:36:00,64.2,50.5,29.82,West,278,6.0,10.0,61,0.00,,,0.00,WeatherCatV1.21B27,2013-08-05 14:36:00,
2013-08-05 15:41:00,64.2,50.5,29.82,West,276,6.0,11.0,61,0.00,,,0.00,WeatherCatV1.21B27,2013-08-05 14:41:00,
2013-08-05 15:46:00,64.4,51.1,29.82,NW,322,3.0,7.0,62,0.00,,,0.00,WeatherCatV1.21B27,2013-08-05 14:46:00,
2013-08-05 15:50:00,64.7,51.8,29.83,NNW,347,4.0,9.0,63,0.00,,,0.00,WeatherCatV1.21B27,2013-08-05 14:50:00,
2013-08-05 15:55:00,64.6,51.7,29.83,WNW,300,5.0,7.0,63,0.00,,,0.00,WeatherCatV1.21B27,2013-08-05 14:55:00,
2013-08-05 16:00:00,64.2,50.5,29.83,West,267,5.0,9.0,61,0.00,,,0.00,WeatherCatV1.21B27,2013-08-05 15:00:00,
2013-08-05 16:05:00,63.9,50.6,29.83,WSW,243,6.0,6.0,62,0.00,,,0.00,WeatherCatV1.21B27,2013-08-05 15:05:00,
2013-08-05 16:10:00,63.8,50.5,29.83,WNW,288,7.0,11.0,62,0.00,,,0.00,WeatherCatV1.21B27,2013-08-05 15:10:00,
2013-08-05 16:15:00,63.8,51.4,29.83,WSW,252,7.0,8.0,64,0.00,,,0.00,WeatherCatV1.21B27,2013-08-05 15:15:00,
2013-08-05 16:20:00,64.2,51.3,29.83,West,272,9.0,12.0,63,0.00,,,0.00,WeatherCatV1.21B27,2013-08-05 15:20:00,
2013-08-05 16:25:00,64.3,51.0,29.83,WSW,256,7.0,12.0,62,0.00,,,0.00,WeatherCatV1.21B27,2013-08-05 15:25:00,
2013-08-05 16:30:00,64.7,53.1,29.83,West,281,12.0,15.0,66,0.00,,,0.00,WeatherCatV1.21B27,2013-08-05 15:30:00,
2013-08-05 16:35:00,65.0,52.1,29.83,West,280,9.0,12.0,63,0.00,,,0.00,WeatherCatV1.21B27,2013-08-05 15:35:00,
2013-08-05 16:40:00,64.4,53.2,29.83,WNW,284,9.0,14.0,67,0.00,,,0.00,WeatherCatV1.21B27,2013-08-05 15:40:00,
2013-08-05 16:45:00,63.7,53.7,29.83,West,278,6.0,11.0,70,0.00,,,0.00,WeatherCatV1.21B27,2013-08-05 15:45:00,
2013-08-05 16:50:00,63.4,53.0,29.84,WNW,284,6.0,10.0,69,0.00,,,0.00,WeatherCatV1.21B27,2013-08-05 15:50:00,
2013-08-05 16:55:00,63.4,53.4,29.83,WSW,248,9.0,9.0,70,0.00,,,0.00,WeatherCatV1.21B27,2013-08-05 15:55:00,
2013-08-05 17:00:00,63.3,54.1,29.84,West,268,4.0,7.0,72,0.00,,,0.00,WeatherCatV1.21B27,2013-08-05 16:00:00,
2013-08-05 17:05:00,63.2,53.2,29.84,West,264,9.0,13.0,70,0.00,,,0.00,WeatherCatV1.21B27,2013-08-05 16:05:00,
2013-08-05 17:10:00,63.1,53.2,29.84,WNW,295,7.0,16.0,70,0.00,,,0.00,WeatherCatV1.21B27,2013-08-05 16:10:00,
2013-08-05 17:15:00,62.9,53.0,29.84,West,269,13.0,16.0,70,0.00,,,0.00,WeatherCatV1.21B27,2013-08-05 16:15:00,
2013-08-05 17:20:00,62.8,52.9,29.84,NW,305,10.0,15.0,70,0.00,,,0.00,WeatherCatV1.21B27,2013-08-05 16:20:00,
2013-08-05 17:25:00,62.8,53.2,29.84,West,280,9.0,10.0,71,0.00,,,0.00,WeatherCatV1.21B27,2013-08-05 16:25:00,
2013-08-05 17:30:00,62.8,53.2,29.84,West,266,8.0,12.0,71,0.00,,,0.00,WeatherCatV1.21B27,2013-08-05 16:30:00,
2013-08-05 17:35:00,62.8,52.9,29.84,West,280,6.0,11.0,70,0.00,,,0.00,WeatherCatV1.21B27,2013-08-05 16:35:00,
2013-08-05 17:40:00,62.9,52.6,29.84,West,264,3.0,13.0,69,0.00,,,0.00,WeatherCatV1.21B27,2013-08-05 16:40:00,
2013-08-05 17:45:00,63.0,53.1,29.84,West,277,6.0,12.0,70,0.00,,,0.00,WeatherCatV1.21B27,2013-08-05 16:45:00,
2013-08-05 17:50:00,62.9,53.0,29.84,WSW,249,7.0,12.0,70,0.00,,,0.00,WeatherCatV1.21B27,2013-08-05 16:50:00,
2013-08-05 17:55:00,62.8,52.9,29.84,West,264,6.0,9.0,70,0.00,,,0.00,WeatherCatV1.21B27,2013-08-05 16:55:00,
2013-08-05 18:00:00,62.8,52.5,29.84,West,259,7.0,10.0,69,0.00,,,0.00,WeatherCatV1.21B27,2013-08-05 17:00:00,
2013-08-05 18:05:00,62.7,53.2,29.84,WNW,287,8.0,10.0,71,0.00,,,0.00,WeatherCatV1.21B27,2013-08-05 17:05:00,
2013-08-05 18:10:00,62.6,52.7,29.84,NNW,341,5.0,8.0,70,0.00,,,0.00,WeatherCatV1.21B27,2013-08-05 17:10:00,
2013-08-05 18:15:00,62.6,52.7,29.85,West,279,4.0,8.0,70,0.00,,,0.00,WeatherCatV1.21B27,2013-08-05 17:15:00,
2013-08-05 18:20:00,62.7,53.2,29.85,West,259,6.0,10.0,71,0.00,,,0.00,WeatherCatV1.21B27,2013-08-05 17:20:00,
2013-08-05 18:25:00,62.6,53.1,29.85,West,269,8.0,13.0,71,0.00,,,0.00,WeatherCatV1.21B27,2013-08-05 17:25:00,
2013-08-05 18:30:00,62.3,53.2,29.85,West,278,7.0,10.0,72,0.00,,,0.00,WeatherCatV1.21B27,2013-08-05 17:30:00,
2013-08-05 18:35:00,61.8,54.2,29.85,WSW,242,8.0,16.0,76,0.00,,,0.00,WeatherCatV1.21B27,2013-08-05 17:35:00,
2013-08-05 18:40:00,61.4,54.1,29.85,WSW,239,5.0,18.0,77,0.00,,,0.00,WeatherCatV1.21B27,2013-08-05 17:40:00,
2013-08-05 18:45:00,61.2,53.9,29.85,WNW,296,11.0,11.0,77,0.00,,,0.00,WeatherCatV1.21B27,2013-08-05 17:45:00,
2013-08-05 18:50:00,60.9,54.0,29.85,West,274,6.0,12.0,78,0.00,,,0.00,WeatherCatV1.21B27,2013-08-05 17:50:00,
2013-08-05 18:55:00,60.9,54.0,29.85,West,270,8.0,10.0,78,0.00,,,0.00,WeatherCatV1.21B27,2013-08-05 17:55:00,
2013-08-05 19:00:00,61.0,53.7,29.85,West,274,9.0,13.0,77,0.00,,,0.00,WeatherCatV1.21B27,2013-08-05 18:00:00,
2013-08-05 19:05:00,61.0,53.4,29.85,West,274,10.0,13.0,76,0.00,,,0.00,WeatherCatV1.21B27,2013-08-05 18:05:00,
2013-08-05 19:10:00,61.1,53.8,29.85,West,263,6.0,10.0,77,0.00,,,0.00,WeatherCatV1.21B27,2013-08-05 18:10:00,
2013-08-05 19:15:00,61.3,54.0,29.85,West,262,7.0,9.0,77,0.00,,,0.00,WeatherCatV1.21B27,2013-08-05 18:15:00,
2013-08-05 19:20:00,61.4,53.4,29.85,WSW,253,7.0,11.0,75,0.00,,,0.00,WeatherCatV1.21B27,2013-08-05 18:20:00,
2013-08-05 19:25:00,61.2,53.2,29.85,West,270,6.0,11.0,75,0.00,,,0.00,WeatherCatV1.21B27,2013-08-05 18:25:00,
2013-08-05 19:30:00,61.1,53.5,29.86,WNW,288,7.0,7.0,76,0.00,,,0.00,WeatherCatV1.21B27,2013-08-05 18:30:00,
2013-08-05 19:35:00,61.0,53.4,29.86,SW,236,7.0,11.0,76,0.00,,,0.00,WeatherCatV1.21B27,2013-08-05 18:35:00,
2013-08-05 19:40:00,61.0,53.4,29.86,West,262,7.0,11.0,76,0.00,,,0.00,WeatherCatV1.21B27,2013-08-05 18:40:00,
2013-08-05 19:45:00,60.9,53.3,29.86,WSW,255,5.0,8.0,76,0.00,,,0.00,WeatherCatV1.21B27,2013-08-05 18:45:00,
2013-08-05 19:50:00,60.9,53.3,29.86,West,274,4.0,6.0,76,0.00,,,0.00,WeatherCatV1.21B27,2013-08-05 18:50:00,
2013-08-05 19:55:00,61.0,53.4,29.86,WSW,256,4.0,7.0,76,0.00,,,0.00,WeatherCatV1.21B27,2013-08-05 18:55:00,
2013-08-05 20:00:00,61.0,53.4,29.86,West,272,3.0,6.0,76,0.00,,,0.00,WeatherCatV1.21B27,2013-08-05 19:00:00,
2013-08-05 20:05:00,61.0,53.4,29.86,WSW,242,5.0,7.0,76,0.00,,,0.00,WeatherCatV1.21B27,2013-08-05 19:05:00,
2013-08-05 20:10:00,60.9,53.6,29.86,WSW,253,5.0,6.0,77,0.00,,,0.00,WeatherCatV1.21B27,2013-08-05 19:10:00,
2013-08-05 20:15:00,60.9,53.6,29.87,West,274,5.0,5.0,77,0.00,,,0.00,WeatherCatV1.21B27,2013-08-05 19:15:00,
2013-08-05 20:20:00,60.9,53.6,29.87,WSW,246,4.0,7.0,77,0.00,,,0.00,WeatherCatV1.21B27,2013-08-05 19:20:00,
2013-08-05 20:25:00,60.8,53.5,29.87,West,276,5.0,6.0,77,0.00,,,0.00,WeatherCatV1.21B27,2013-08-05 19:25:00,
2013-08-05 20:30:00,60.7,53.8,29.87,West,281,4.0,6.0,78,0.00,,,0.00,WeatherCatV1.21B27,2013-08-05 19:30:00,
2013-08-05 20:35:00,60.5,53.6,29.87,West,276,7.0,7.0,78,0.00,,,0.00,WeatherCatV1.21B27,2013-08-05 19:35:00,
2013-08-05 20:40:00,60.5,53.6,29.87,SW,233,6.0,6.0,78,0.00,,,0.00,WeatherCatV1.21B27,2013-08-05 19:40:00,
2013-08-05 20:45:00,60.4,53.8,29.87,WSW,249,3.0,9.0,79,0.00,,,0.00,WeatherCatV1.21B27,2013-08-05 19:45:00,
2013-08-05 20:50:00,60.2,54.0,29.87,WSW,255,3.0,7.0,80,0.00,,,0.00,WeatherCatV1.21B27,2013-08-05 19:50:00,
2013-08-05 20:55:00,60.0,54.2,29.87,SW,233,4.0,8.0,81,0.00,,,0.00,WeatherCatV1.21B27,2013-08-05 19:55:00,
2013-08-05 21:00:00,59.8,54.0,29.87,WSW,243,6.0,6.0,81,0.00,,,0.00,WeatherCatV1.21B27,2013-08-05 20:00:00,
2013-08-05 21:05:00,59.6,54.1,29.87,SW,224,6.0,7.0,82,0.00,,,0.00,WeatherCatV1.21B27,2013-08-05 20:05:00,
2013-08-05 21:10:00,59.5,54.0,29.87,WNW,283,3.0,6.0,82,0.00,,,0.00,WeatherCatV1.21B27,2013-08-05 20:10:00,
2013-08-05 21:15:00,59.4,54.2,29.87,SW,219,3.0,8.0,83,0.00,,,0.00,WeatherCatV1.21B27,2013-08-05 20:15:00,
2013-08-05 21:20:00,59.1,53.9,29.88,West,271,4.0,5.0,83,0.00,,,0.00,WeatherCatV1.21B27,2013-08-05 20:20:00,
2013-08-05 21:25:00,58.9,54.1,29.88,West,270,4.0,6.0,84,0.00,,,0.00,WeatherCatV1.21B27,2013-08-05 20:25:00,
2013-08-05 21:30:00,58.7,53.9,29.88,WNW,285,5.0,5.0,84,0.00,,,0.00,WeatherCatV1.21B27,2013-08-05 20:30:00,
2013-08-05 21:35:00,58.4,53.6,29.88,WNW,283,4.0,6.0,84,0.00,,,0.00,WeatherCatV1.21B27,2013-08-05 20:35:00,
2013-08-05 21:40:00,58.2,53.4,29.88,West,274,3.0,6.0,84,0.00,,,0.00,WeatherCatV1.21B27,2013-08-05 20:40:00,
2013-08-05 21:45:00,58.0,53.2,29.88,West,262,2.0,4.0,84,0.00,,,0.00,WeatherCatV1.21B27,2013-08-05 20:45:00,
2013-08-05 21:50:00,57.9,53.4,29.88,WNW,287,4.0,6.0,85,0.00,,,0.00,WeatherCatV1.21B27,2013-08-05 20:50:00,
2013-08-05 21:55:00,57.9,53.4,29.89,SW,236,3.0,6.0,85,0.00,,,0.00,WeatherCatV1.21B27,2013-08-05 20:55:00,
2013-08-05 22:00:00,57.8,53.3,29.89,WSW,238,3.0,6.0,85,0.00,,,0.00,WeatherCatV1.21B27,2013-08-05 21:00:00,
2013-08-05 22:05:00,57.6,53.1,29.89,West,264,4.0,6.0,85,0.00,,,0.00,WeatherCatV1.21B27,2013-08-05 21:05:00,
2013-08-05 22:10:00,57.5,53.3,29.89,West,271,3.0,6.0,86,0.00,,,0.00,WeatherCatV1.21B27,2013-08-05 21:10:00,
2013-08-05 22:15:00,57.4,53.2,29.89,West,262,2.0,4.0,86,0.00,,,0.00,WeatherCatV1.21B27,2013-08-05 21:15:00,
2013-08-05 22:20:00,57.4,53.6,29.89,WSW,257,4.0,5.0,87,0.00,,,0.00,WeatherCatV1.21B27,2013-08-05 21:20:00,
2013-08-05 22:25:00,57.4,53.6,29.89,West,278,3.0,4.0,87,0.00,,,0.00,WeatherCatV1.21B27,2013-08-05 21:25:00,
2013-08-05 22:30:00,57.4,53.6,29.89,West,274,4.0,6.0,87,0.00,,,0.00,WeatherCatV1.21B27,2013-08-05 21:30:00,
2013-08-05 22:35:00,57.4,53.6,29.89,West,274,3.0,6.0,87,0.00,,,0.00,WeatherCatV1.21B27,2013-08-05 21:35:00,
2013-08-05 22:40:00,57.4,53.6,29.89,WSW,249,4.0,7.0,87,0.00,,,0.00,WeatherCatV1.21B27,2013-08-05 21:40:00,
2013-08-05 22:45:00,57.4,53.6,29.89,West,270,3.0,7.0,87,0.00,,,0.00,WeatherCatV1.21B27,2013-08-05 21:45:00,
2013-08-05 22:50:00,57.5,53.7,29.89,West,281,4.0,4.0,87,0.00,,,0.00,WeatherCatV1.21B27,2013-08-05 21:50:00,
2013-08-05 22:55:00,57.4,53.6,29.89,West,266,4.0,6.0,87,0.00,,,0.00,WeatherCatV1.21B27,2013-08-05 21:55:00,
2013-08-05 23:00:00,57.4,53.6,29.89,WSW,256,3.0,5.0,87,0.00,,,0.00,WeatherCatV1.21B27,2013-08-05 22:00:00,
2013-08-05 23:05:00,57.4,53.6,29.89,West,271,4.0,6.0,87,0.00,,,0.00,WeatherCatV1.21B27,2013-08-05 22:05:00,
2013-08-05 23:10:00,57.4,53.6,29.89,West,278,4.0,4.0,87,0.00,,,0.00,WeatherCatV1.21B27,2013-08-05 22:10:00,
2013-08-05 23:15:00,57.4,53.6,29.89,West,267,2.0,4.0,87,0.00,,,0.00,WeatherCatV1.21B27,2013-08-05 22:15:00,
2013-08-05 23:20:00,57.2,53.4,29.89,West,280,4.0,4.0,87,0.00,,,0.00,WeatherCatV1.21B27,2013-08-05 22:20:00,
2013-08-05 23:25:00,57.1,53.3,29.89,West,260,2.0,3.0,87,0.00,,,0.00,WeatherCatV1.21B27,2013-08-05 22:25:00,
2013-08-05 23:30:00,57.0,53.2,29.89,West,266,3.0,4.0,87,0.00,,,0.00,WeatherCatV1.21B27,2013-08-05 22:30:00,
2013-08-05 23:35:00,56.8,53.3,29.89,West,271,1.0,3.0,88,0.00,,,0.00,WeatherCatV1.21B27,2013-08-05 22:35:00,
2013-08-05 23:40:00,56.8,53.3,29.89,WNW,283,2.0,5.0,88,0.00,,,0.00,WeatherCatV1.21B27,2013-08-05 22:40:00,
2013-08-05 23:45:00,56.8,53.3,29.90,WSW,252,6.0,6.0,88,0.00,,,0.00,WeatherCatV1.21B27,2013-08-05 22:45:00,
2013-08-05 23:50:00,56.8,53.6,29.90,WNW,287,2.0,5.0,89,0.00,,,0.00,WeatherCatV1.21B27,2013-08-05 22:50:00,
2013-08-05 23:55:00,56.6,53.7,29.90,West,272,4.0,5.0,90,0.00,,,0.00,WeatherCatV1.21B27,2013-08-05 22:55:00,